GW1265 Weather Reports


time (UTC)temp
C
wind
direction
speed
KPH
gust
KPH
rain 1hr
cm
rain 24hr
cm
rain mn
cm
humidity
%
barometer
mb
20260505235132 22 90 11.3 17.7 0.00 0.00 0.00 10 1002.1
20260505234621 22 90 8.0 20.9 0.00 0.00 0.00 10 1001.8
20260505234112 22 90 11.3 20.9 0.00 0.00 0.00 10 1002.0
20260505233601 22 68 12.9 20.9 0.00 0.00 0.00 10 1002.0
20260505232542 22 90 12.9 22.5 0.00 0.00 0.00 10 1001.9
20260505232031 22 90 11.3 20.9 0.00 0.00 0.00 10 1001.9
20260505231522 22 68 12.9 20.9 0.00 0.00 0.00 10 1001.7
20260505231011 22 68 12.9 20.9 0.00 0.00 0.00 10 1001.9
20260505230501 23 68 11.3 20.9 0.00 0.00 0.00 10 1001.7
20260505225441 23 90 11.3 20.9 0.00 0.00 0.00 10 1001.7
20260505224930 23 90 14.5 17.7 0.00 0.00 0.00 10 1001.6
20260505224420 23 90 12.9 17.7 0.00 0.00 0.00 10 1001.8
20260505223910 23 68 6.4 12.9 0.00 0.00 0.00 10 1001.6
20260505223401 23 90 8.0 17.7 0.00 0.00 0.00 10 1001.8
20260505222850 23 68 11.3 17.7 0.00 0.00 0.00 10 1001.7
20260505222340 23 90 9.7 12.9 0.00 0.00 0.00 10 1001.5
20260505221830 23 90 6.4 12.9 0.00 0.00 0.00 10 1001.5
20260505221320 23 90 8.0 12.9 0.00 0.00 0.00 10 1001.4
20260505220810 23 90 9.7 12.9 0.00 0.00 0.00 10 1001.5
20260505220301 23 68 6.4 11.3 0.00 0.00 0.00 10 1001.5
20260505215750 24 90 6.4 12.9 0.00 0.00 0.00 10 1001.7
20260505215239 24 68 8.0 12.9 0.00 0.00 0.00 10 1001.5
20260505214728 23 90 9.7 11.3 0.00 0.00 0.00 10 1001.3
20260505214227 23 90 4.8 6.4 0.00 0.00 0.00 10 1001.5
20260505213159 24 68 6.4 6.4 0.00 0.00 0.00 10 1001.4
20260505212649 24 68 4.8 9.7 0.00 0.00 0.00 10 1001.5
20260505212139 24 68 6.4 9.7 0.00 0.00 0.00 10 1001.6
20260505211628 24 68 4.8 6.4 0.00 0.00 0.00 10 1001.4
20260505211119 24 90 3.2 6.4 0.00 0.00 0.00 10 1001.4
20260505210609 24 113 4.8 9.7 0.00 0.00 0.00 10 1001.4
20260505210059 24 68 6.4 11.3 0.00 0.00 0.00 10 1001.2
20260505205548 24 90 6.4 11.3 0.00 0.00 0.00 10 1001.2
20260505205038 24 68 6.4 11.3 0.00 0.00 0.00 10 1001.4
20260505204017 24 90 3.2 9.7 0.00 0.00 0.00 10 1001.2
20260505202957 25 90 3.2 9.7 0.00 0.00 0.00 10 1001.4
20260505201938 25 90 4.8 9.7 0.00 0.00 0.00 10 1001.4
20260505201427 25 90 3.2 11.3 0.00 0.00 0.00 10 1001.1
20260505200406 25 135 3.2 11.3 0.00 0.00 0.00 10 1001.1
20260505195346 25 68 4.8 12.9 0.00 0.00 0.00 10 1001.3
20260505194837 25 90 4.8 11.3 0.00 0.00 0.00 10 1001.2
20260505194326 25 68 6.4 11.3 0.00 0.00 0.00 10 1001.3
20260505193817 25 113 4.8 11.3 0.00 0.00 0.00 10 1001.1
20260505193306 25 45 6.4 11.3 0.00 0.00 0.00 10 1001.3
20260505192756 25 68 6.4 11.3 0.00 0.00 0.00 10 1001.4
20260505191736 25 90 6.4 6.4 0.00 0.00 0.00 10 1001.5
20260505191226 25 113 1.6 6.4 0.00 0.00 0.00 10 1001.7
20260505190716 25 68 3.2 6.4 0.00 0.00 0.00 10 1001.7
20260505190205 25 90 4.8 6.4 0.00 0.00 0.00 10 1001.6
20260505185656 25 68 3.2 6.4 0.00 0.00 0.00 10 1001.7
20260505185146 25 68 0.0 9.7 0.00 0.00 0.00 10 1001.8
20260505184635 25 68 4.8 9.7 0.00 0.00 0.00 10 1001.7
20260505183615 25 90 3.2 9.7 0.00 0.00 0.00 10 1001.6
20260505183105 25 68 4.8 9.7 0.00 0.00 0.00 10 1001.3
20260505182556 25 338 1.6 9.7 0.00 0.00 0.00 10 1001.9
20260505182046 25 90 1.6 9.7 0.00 0.00 0.00 10 1001.8
20260505181535 25 23 1.6 6.4 0.00 0.00 0.00 10 1001.8
20260505181025 25 45 1.6 6.4 0.00 0.00 0.00 10 1001.7
20260505180004 25 113 0.0 6.4 0.00 0.00 0.00 10 1001.8
20260505175455 25 68 3.2 6.4 0.00 0.00 0.00 10 1001.7
20260505174944 25 45 3.2 6.4 0.00 0.00 0.00 10 1001.8
20260505174434 25 23 3.2 9.7 0.00 0.00 0.00 10 1001.8
20260505173924 25 90 3.2 9.7 0.00 0.00 0.00 10 1001.9
20260505173414 24 45 4.8 6.4 0.00 0.00 0.00 10 1002.1
20260505172903 24 90 1.6 6.4 0.00 0.00 0.00 10 1002.0
20260505172354 23 68 3.2 9.7 0.00 0.00 0.00 10 1002.1
20260505171333 23 45 6.4 11.3 0.00 0.00 0.00 10 1002.0
20260505170824 23 68 3.2 12.9 0.00 0.00 0.00 10 1002.5
20260505170313 23 113 6.4 12.9 0.00 0.00 0.00 10 1002.1
20260505165253 23 68 6.4 9.7 0.00 0.00 0.00 10 1002.2
20260505164743 23 23 3.2 9.7 0.00 0.00 0.00 10 1002.5
20260505164232 23 23 4.8 9.7 0.00 0.00 0.00 10 1002.6
20260505163212 23 68 3.2 11.3 0.00 0.00 0.00 10 1002.5
20260505162702 23 45 3.2 11.3 0.00 0.00 0.00 10 1002.5
20260505162152 23 45 8.0 11.3 0.00 0.00 0.00 10 1002.7
20260505161642 23 45 1.6 9.7 0.00 0.00 0.00 10 1002.8
20260505161135 22 68 1.6 17.7 0.00 0.00 0.00 10 1003.0
20260505160622 22 45 8.0 17.7 0.00 0.00 0.00 10 1003.0
20260505160112 22 45 11.3 14.5 0.00 0.00 0.00 10 1003.2
20260505152501 22 315 3.2 12.9 0.00 0.00 0.00 10 1003.1
20260505151951 22 68 9.7 14.5 0.00 0.00 0.00 10 1003.1
20260505151441 21 68 8.0 14.5 0.00 0.00 0.00 10 1003.1
20260505150421 21 0 9.7 24.1 0.00 0.00 0.00 10 1003.3
20260505124957 19 23 11.3 14.5 0.00 0.00 0.00 10 1004.0
20260505123937 19 45 6.4 12.9 0.00 0.00 0.00 10 1003.8
20260505123428 18 0 3.2 14.5 0.00 0.00 0.00 10 1003.9
20260505122917 18 23 11.3 14.5 0.00 0.00 0.00 10 1003.8
20260505122407 18 0 6.4 11.3 0.00 0.00 0.00 10 1004.0
20260505121857 18 0 6.4 11.3 0.00 0.00 0.00 10 1003.9
20260505121347 18 68 3.2 11.3 0.00 0.00 0.00 10 1003.6
20260505120836 18 23 3.2 12.9 0.00 0.00 0.00 10 1003.7
20260505120326 18 45 3.2 12.9 0.00 0.00 0.00 10 1003.6
20260505115816 18 23 6.4 12.9 0.00 0.00 0.00 10 1003.6
20260505115306 18 45 6.4 12.9 0.00 0.00 0.00 10 1003.4
20260505114756 18 23 8.0 12.9 0.00 0.00 0.00 10 1003.5
20260505114246 18 0 6.4 12.9 0.00 0.00 0.00 10 1003.2
20260505113736 18 23 8.0 12.9 0.00 0.00 0.00 10 1003.4
20260505113226 18 23 6.4 11.3 0.00 0.00 0.00 10 1003.3
20260505112716 18 23 4.8 11.3 0.00 0.00 0.00 10 1003.1
20260505112206 18 23 3.2 9.7 0.00 0.00 0.00 10 1003.3
20260505111657 18 68 6.4 9.7 0.00 0.00 0.00 10 1003.0
20260505111146 17 68 6.4 9.7 0.00 0.00 0.00 10 1002.9
20260505110635 18 45 4.8 9.7 0.00 0.00 0.00 10 1003.2
20260505110126 18 68 6.4 11.3 0.00 0.00 0.00 10 1003.2
20260505102004 18 0 6.4 11.3 0.00 0.00 0.00 10 1002.9
20260505101455 18 23 6.4 12.9 0.00 0.00 0.00 10 1002.8
20260505100944 18 0 9.7 12.9 0.00 0.00 0.00 10 1002.9
20260505100434 18 0 8.0 11.3 0.00 0.00 0.00 10 1002.7
20260505095924 18 23 8.0 11.3 0.00 0.00 0.00 10 1002.8
20260505095414 18 338 8.0 11.3 0.00 0.00 0.00 10 1002.5
20260505094353 18 0 6.4 11.3 0.00 0.00 0.00 10 1002.4
20260505093844 18 0 8.0 9.7 0.00 0.00 0.00 10 1002.6
20260505093334 18 0 8.0 9.7 0.00 0.00 0.00 10 1002.2
20260505092823 18 0 6.4 9.7 0.00 0.00 0.00 10 1002.5
20260505092313 18 338 6.4 9.7 0.00 0.00 0.00 10 1002.5
20260505091803 18 0 6.4 9.7 0.00 0.00 0.00 10 1002.4
20260505091253 18 0 6.4 9.7 0.00 0.00 0.00 10 1002.3
20260505090742 17 338 6.4 9.7 0.00 0.00 0.00 10 1002.2
20260505085722 17 338 6.4 12.9 0.00 0.00 0.00 10 1002.1
20260505085212 17 338 6.4 12.9 0.00 0.00 0.00 10 1002.3
20260505084702 17 0 6.4 11.3 0.00 0.00 0.00 10 1001.8
20260505084152 17 0 8.0 11.3 0.00 0.00 0.00 10 1002.0
20260505083131 17 0 9.7 12.9 0.00 0.00 0.00 10 1001.7
20260505082622 17 0 8.0 14.5 0.00 0.00 0.00 10 1001.9
20260505082111 18 23 11.3 14.5 0.00 0.00 0.00 10 1001.7
20260505081601 18 23 8.0 14.5 0.00 0.00 0.00 10 1001.8
20260505081051 18 0 8.0 12.9 0.00 0.00 0.00 10 1001.9
20260505080542 18 0 9.7 14.5 0.00 0.00 0.00 10 1002.1
20260505080031 18 0 9.7 14.5 0.00 0.00 0.00 10 1002.1
20260505075521 18 338 8.0 12.9 0.00 0.00 0.00 10 1002.0
20260505075011 18 23 9.7 14.5 0.00 0.00 0.00 10 1001.9
20260505072930 18 23 9.7 12.9 0.00 0.00 0.00 10 1002.1
20260505072420 18 23 8.0 11.3 0.00 0.00 0.00 10 1001.8
20260505071911 18 0 6.4 12.9 0.00 0.00 0.00 10 1002.1
20260505070851 18 0 9.7 12.9 0.00 0.00 0.00 10 1002.1
20260505070338 18 0 11.3 0.0 0.00 0.00 0.00 10 1002.1
20260505070145 18 0 11.3 0.0 0.00 0.00 0.00 10 1002.1
20260505065519 18 338 12.9 20.9 0.00 0.00 0.00 10 1002.3
20260505064458 18 338 12.9 20.9 0.00 0.00 0.00 10 1002.2
20260505063947 18 23 12.9 20.9 0.00 0.00 0.00 10 1002.1
20260505062927 18 0 12.9 20.9 0.00 0.00 0.00 10 1001.8
20260505062418 18 338 12.9 20.9 0.00 0.00 0.00 10 1002.0
20260505061906 18 0 9.7 20.9 0.00 0.00 0.00 10 1002.1
20260505061357 18 0 12.9 24.1 0.00 0.00 0.00 10 1002.0
20260505055827 18 0 12.9 20.9 0.00 0.00 0.00 10 1002.1
20260505055317 18 338 12.9 20.9 0.00 0.00 0.00 10 1002.2
20260505054806 18 338 12.9 22.5 0.00 0.00 0.00 10 1002.1
20260505053746 17 338 11.3 20.9 0.00 0.00 0.00 10 1002.2
20260505053236 17 0 11.3 20.9 0.00 0.00 0.00 10 1002.1
20260505052726 17 23 9.7 17.7 0.00 0.00 0.00 10 1002.0
20260505052219 17 23 12.9 17.7 0.00 0.00 0.00 10 1002.2
20260505051707 17 23 11.3 17.7 0.00 0.00 0.00 10 1002.1
20260505051155 17 45 12.9 17.7 0.00 0.00 0.00 10 1002.2
20260505050645 17 23 11.3 17.7 0.00 0.00 0.00 10 1001.9
20260505050136 17 68 14.5 17.7 0.00 0.00 0.00 10 1002.0
20260505041504 17 45 11.3 12.9 0.00 0.00 0.00 10 1002.5
20260505040444 17 338 9.7 20.9 0.00 0.00 0.00 10 1002.6
20260505035934 17 0 12.9 20.9 0.00 0.00 0.00 10 1002.6
20260505035424 17 0 12.9 20.9 0.00 0.00 0.00 10 1002.5
20260505034913 17 45 16.1 20.9 0.00 0.00 0.00 10 1002.4
20260505034404 17 23 16.1 22.5 0.00 0.00 0.00 10 1002.3
20260505033854 17 0 17.7 25.7 0.00 0.00 0.00 10 1002.3
20260505033343 17 23 16.1 25.7 0.00 0.00 0.00 10 1002.1
20260505032833 17 45 17.7 24.1 0.00 0.00 0.00 10 1002.2
20260505032324 18 23 19.3 24.1 0.00 0.00 0.00 10 1002.3
20260505031303 17 23 20.9 27.4 0.00 0.00 0.00 10 1002.2
20260505030753 17 23 19.3 27.4 0.00 0.00 0.00 10 1002.1
20260505030243 17 23 22.5 25.7 0.00 0.00 0.00 10 1002.1
20260505025733 17 23 17.7 24.1 0.00 0.00 0.00 10 1002.2
20260505024203 17 23 17.7 25.7 0.00 0.00 0.00 10 1002.0
20260505023141 17 45 14.5 22.5 0.00 0.00 0.00 10 1002.0
20260505022632 17 23 16.1 20.9 0.00 0.00 0.00 10 1002.2
20260505022123 17 23 12.9 17.7 0.00 0.00 0.00 10 1001.9
20260505021613 17 23 12.9 22.5 0.00 0.00 0.00 10 1001.9
20260505021102 17 45 14.5 22.5 0.00 0.00 0.00 10 1001.8
20260505020043 17 23 17.7 20.9 0.00 0.00 0.00 10 1001.7
20260505015021 17 23 17.7 20.9 0.00 0.00 0.00 10 1001.8
20260505014513 17 45 17.7 20.9 0.00 0.00 0.00 10 1001.9
20260505014002 17 23 12.9 17.7 0.00 0.00 0.00 10 1001.6
20260505013451 17 23 12.9 14.5 0.00 0.00 0.00 10 1001.8
20260505012431 17 45 12.9 17.7 0.00 0.00 0.00 10 1001.9
20260505011921 17 45 14.5 17.7 0.00 0.00 0.00 10 1001.8
20260505010900 17 90 16.1 17.7 0.00 0.00 0.00 10 1001.7
20260505010350 17 68 14.5 17.7 0.00 0.00 0.00 10 1001.7
20260505005840 18 68 14.5 17.7 0.00 0.00 0.00 10 1001.7
20260505005330 18 45 12.9 14.5 0.00 0.00 0.00 10 1001.5
20260505004820 18 68 11.3 17.7 0.00 0.00 0.00 10 1001.5
20260505004310 18 45 14.5 17.7 0.00 0.00 0.00 10 1001.6
20260505003250 18 45 16.1 17.7 0.00 0.00 0.00 10 1001.5
20260505002739 18 68 16.1 17.7 0.00 0.00 0.00 10 1001.5
20260505002229 18 45 17.7 17.7 0.00 0.00 0.00 10 1001.5
20260505001719 18 23 14.5 17.7 0.00 0.00 0.00 10 1001.4
20260505001208 18 45 12.9 14.5 0.00 0.00 0.00 10 1001.5
20260505000700 18 68 8.0 11.3 0.00 0.00 0.00 10 1001.7
20260505000149 18 68 9.7 12.9 0.00 0.00 0.00 10 1001.4
20260504235639 18 45 11.3 12.9 0.00 0.00 0.00 10 1001.6